1529197201.04,2324,16.06,74008.0,2.73,-20.49,-18.55,0,*4A
1529197202.28,2325,16.0,74006.5,2.71,-20.49,-18.55,0,*49
1529197203.5,2326,16.0,74004.0,2.71,-20.53,-18.49,0,*4C
1529197204.78,2327,16.0,74006.5,2.73,-20.49,-18.55,0,*49
1529197205.97,2328,16.0,74002.5,2.71,-20.63,-18.65,0,*4F
1529197207.19,2329,16.0,74006.5,2.71,-20.49,-18.65,0,*46
1529197208.41,2330,16.0,74006.0,2.71,-20.49,-18.65,0,*4E
1529197209.65,2331,16.0,74004.8,2.71,-20.49,-18.55,0,*4C
1529197210.87,2332,16.0,74004.3,2.71,-20.49,-18.65,0,*4C
1529197212.09,2333,16.0,74002.3,2.71,-20.53,-18.65,0,*46
1529197213.31,2334,16.0,74006.5,2.71,-20.53,-18.69,0,*4D
1529197214.55,2335,16.06,74006.5,2.71,-20.49,-18.55,0,*48
1529197215.8,2336,16.0,74006.3,2.71,-20.49,-18.55,0,*4B
1529197217.02,2337,16.0,74000.3,2.71,-20.49,-18.69,0,*45
1529197218.24,2338,16.0,74004.8,2.71,-20.49,-18.73,0,*41
1529197219.45,2339,16.0,74004.8,2.71,-20.53,-18.83,0,*44
1529197220.67,2340,16.0,74006.0,2.71,-20.49,-18.73,0,*4E
1529197221.9,2341,16.0,74004.8,2.71,-20.53,-18.73,0,*44
1529197223.12,2342,16.0,74000.3,2.71,-20.53,-18.73,0,*47
1529197224.34,2343,16.0,74006.0,2.71,-20.49,-18.73,0,*4D
1529197225.56,2344,16.06,74004.8,2.71,-20.49,-18.73,0,*4A
1529197226.78,2345,16.0,74006.3,2.71,-20.49,-18.65,0,*4C
1529197228.0,2346,16.0,74004.8,2.71,-20.49,-18.73,0,*48
1529197229.23,2347,16.0,74000.8,2.71,-20.53,-18.73,0,*42
1529197230.47,2348,16.06,74004.5,2.69,-20.53,-18.79,0,*4E
1529197231.69,2349,16.0,74002.5,2.71,-20.49,-18.69,0,*4C
1529197232.93,2350,16.0,74006.0,2.69,-20.53,-18.79,0,*47
1529197234.15,2351,16.0,74006.5,2.69,-20.59,-18.79,0,*4C
1529197235.37,2352,16.0,74006.3,2.71,-20.49,-18.69,0,*46
1529197236.58,2353,16.0,74004.0,2.71,-20.49,-18.83,0,*43
1529197237.82,2354,16.0,74004.0,2.71,-20.53,-18.89,0,*45
1529197239.04,2355,16.0,74006.5,2.71,-20.49,-18.83,0,*45
1529197240.25,2356,16.0,74004.3,2.71,-20.53,-18.83,0,*4D
1529197241.46,2357,16.0,74004.3,2.71,-20.49,-18.83,0,*47
1529197242.68,2358,16.0,74004.5,2.71,-20.49,-18.83,0,*48
1529197243.89,2359,16.0,74004.0,2.71,-20.49,-18.83,0,*49
1529197245.1,2360,16.06,74006.8,2.71,-20.49,-18.83,0,*43
1529197246.32,2361,16.0,74004.8,2.71,-20.35,-18.65,0,*41
1529197247.53,2362,16.0,74006.8,2.71,-20.35,-18.69,0,*4E
1529197248.72,2363,16.0,74004.3,2.71,-20.39,-18.83,0,*47
1529197249.91,2364,16.0,74006.0,2.71,-20.39,-18.83,0,*40
1529197251.16,2365,16.0,74006.3,2.73,-20.39,-18.89,0,*49
1529197252.36,2366,16.0,74004.5,2.71,-20.39,-18.73,0,*4D
1529197253.56,2367,16.0,74006.0,2.71,-20.39,-18.73,0,*4C
1529197254.77,2368,16.06,74008.0,2.71,-20.35,-18.73,0,*4F
1529197255.99,2369,16.0,74004.0,2.71,-20.39,-18.89,0,*47
1529197257.2,2370,16.0,74006.3,2.71,-20.53,-18.99,0,*42
1529197258.45,2371,16.0,74004.3,2.73,-20.49,-18.99,0,*4A
1529197259.69,2372,16.0,74000.0,2.73,-20.49,-18.83,0,*42
1529197260.93,2373,16.0,74004.8,2.71,-20.49,-18.89,0,*4B
1529197262.17,2374,16.0,74006.3,2.73,-20.49,-18.99,0,*4F
1529197263.42,2375,16.0,74000.5,2.73,-20.49,-18.99,0,*4E
1529197264.63,2376,16.0,74004.3,2.71,-20.53,-18.99,0,*44
1529197265.85,2377,16.0,74002.5,2.71,-20.49,-18.99,0,*4E
1529197267.09,2378,16.06,74006.3,2.73,-20.53,-18.99,0,*48
1529197268.33,2379,16.0,74000.5,2.73,-20.49,-18.99,0,*42
1529197269.55,2380,16.0,74004.8,2.71,-20.53,-18.99,0,*4D
1529197270.76,2381,16.0,74006.3,2.71,-20.49,-19.03,0,*45
1529197271.98,2382,16.0,74002.0,2.71,-20.49,-19.03,0,*46
1529197273.19,2383,16.0,74004.3,2.71,-20.39,-18.89,0,*43
1529197274.44,2384,16.0,74000.5,2.73,-20.49,-19.03,0,*42
1529197275.65,2385,16.0,74006.0,2.71,-20.49,-19.03,0,*41
1529197276.86,2386,16.06,74006.0,2.71,-20.49,-19.03,0,*42
1529197278.09,2387,16.0,74006.3,2.73,-20.39,-19.03,0,*46
1529197279.28,2388,16.0,74004.8,2.71,-20.39,-19.03,0,*4B
1529197280.48,2389,16.0,74004.0,2.71,-20.35,-18.99,0,*44
1529197281.72,2390,16.0,74004.3,2.73,-20.35,-18.99,0,*4E
1529197282.94,2391,16.0,74000.0,2.73,-20.39,-18.99,0,*43
1529197284.18,2392,16.0,74000.5,2.73,-20.35,-19.03,0,*4E
1529197285.41,2393,16.06,74006.5,2.73,-20.39,-19.13,0,*42
1529197286.62,2394,16.0,74004.0,2.71,-20.35,-19.03,0,*4A
1529197287.83,2395,16.0,74004.3,2.73,-20.25,-18.99,0,*4A
1529197289.05,2396,16.0,74002.8,2.73,-20.39,-19.03,0,*46
1529197290.3,2397,16.0,74004.3,2.73,-20.49,-19.03,0,*40
1529197291.55,2398,16.0,74004.0,2.75,-20.49,-19.27,0,*4F
1529197292.8,2399,16.0,74000.8,2.73,-20.49,-19.13,0,*4F
1529197294.05,2400,16.0,74004.5,2.73,-20.49,-19.17,0,*4C
1529197295.32,2401,16.0,74004.3,2.73,-20.49,-19.27,0,*4E
1529197296.58,2402,16.06,74006.3,2.73,-20.49,-19.13,0,*4A
1529197297.85,2403,16.0,74004.0,2.73,-20.53,-19.27,0,*47
1529197299.13,2404,16.0,74004.0,2.73,-20.49,-19.27,0,*4B
1529197300.38,2405,16.06,74006.0,2.73,-20.49,-19.13,0,*4D
1529197301.61,2406,16.0,74002.5,2.73,-20.39,-19.13,0,*49
1529197302.82,2407,16.0,74000.0,2.71,-20.35,-19.03,0,*47
1529197304.04,2408,16.0,74002.5,2.73,-20.39,-19.17,0,*43
1529197305.29,2409,16.0,74000.8,2.73,-20.35,-19.13,0,*4A
1529197306.54,2410,16.0,74000.3,2.73,-20.39,-19.27,0,*49
1529197307.79,2411,16.0,74000.3,2.73,-20.35,-19.17,0,*47
1529197309.02,2412,16.0,74002.0,2.73,-20.35,-19.03,0,*41
1529197310.26,2413,16.0,74000.5,2.73,-20.19,-19.03,0,*4E
1529197311.5,2414,16.0,74002.8,2.73,-20.19,-18.99,0,*4B
1529197312.73,2415,16.06,74004.8,2.73,-20.39,-19.13,0,*4B
1529197313.95,2416,16.0,74000.0,2.75,-20.35,-19.13,0,*42
1529197315.16,2417,16.0,74000.5,2.75,-20.35,-19.07,0,*46
1529197316.36,2418,16.06,74004.0,2.75,-20.35,-19.07,0,*49
1529197317.54,2419,16.0,74002.5,2.75,-20.29,-19.07,0,*45
1529197318.73,2420,16.0,74000.3,2.79,-20.29,-19.17,0,*42
1529197319.93,2421,16.0,74000.0,2.75,-20.29,-19.13,0,*4B
1529197321.14,2422,16.0,74002.5,2.79,-20.35,-19.13,0,*49
1529197322.39,2423,16.06,74006.8,2.75,-20.35,-19.27,0,*43
1529197323.59,2424,16.06,74004.3,2.75,-20.43,-19.37,0,*44
1529197324.78,2425,16.0,74002.8,2.75,-20.29,-19.13,0,*4F
1529197326.02,2426,16.0,73998.8,2.75,-20.35,-19.27,0,*46
1529197327.23,2427,16.0,74000.0,2.75,-20.29,-19.23,0,*4E
1529197328.44,2428,16.0,74002.5,2.79,-20.29,-19.23,0,*4D
1529197329.66,2429,16.0,74002.3,2.79,-20.29,-19.31,0,*4F
1529197330.91,2430,16.0,74002.0,2.75,-20.49,-19.41,0,*4A
1529197332.11,2431,16.06,74004.3,2.75,-20.43,-19.37,0,*40
1529197333.33,2432,16.0,74000.3,2.75,-20.35,-19.37,0,*42
1529197334.56,2433,16.0,74000.5,2.75,-20.43,-19.27,0,*43
1529197335.78,2434,16.06,74002.0,2.79,-20.39,-19.31,0,*42
1529197337.02,2435,16.0,74002.8,2.75,-20.35,-19.23,0,*40
1529197338.23,2436,16.0,74002.3,2.79,-20.29,-19.27,0,*46
1529197339.43,2437,16.0,74002.3,2.79,-20.43,-19.47,0,*4D
1529197340.64,2438,16.0,74000.3,2.75,-20.43,-19.51,0,*49
1529197341.84,2439,16.0,74000.5,2.75,-20.43,-19.51,0,*48
1529197343.07,2440,16.0,74002.5,2.75,-20.63,-19.57,0,*42
1529197344.35,2441,16.0,74000.8,2.81,-20.53,-19.57,0,*4B
1529197345.56,2442,16.0,74002.8,2.75,-20.43,-19.51,0,*44
1529197346.78,2443,16.0,74002.8,2.79,-20.53,-19.51,0,*48
1529197348.01,2444,16.0,74002.8,2.79,-20.59,-19.57,0,*43
1529197349.25,2445,16.0,74002.0,2.75,-20.59,-19.57,0,*4E
1529197350.45,2446,16.0,74000.5,2.79,-20.39,-19.51,0,*41
1529197351.65,2447,16.06,74002.3,2.79,-20.39,-19.51,0,*40
1529197352.85,2448,16.0,74000.8,2.79,-20.39,-19.37,0,*4F
1529197354.05,2449,16.0,74002.8,2.79,-20.39,-19.47,0,*49
1529197355.23,2450,16.0,74000.5,2.75,-20.29,-19.51,0,*4B
1529197356.46,2451,16.0,74000.3,2.81,-20.25,-19.37,0,*4D
1529197357.65,2452,16.0,73996.8,2.79,-20.29,-19.37,0,*45
1529197358.91,2453,16.0,74000.0,2.81,-20.39,-19.57,0,*44
1529197360.12,2454,16.06,74002.0,2.75,-20.35,-19.51,0,*42
1529197361.31,2455,16.0,74002.8,2.79,-20.29,-19.37,0,*42
1529197362.56,2456,16.0,74002.5,2.81,-20.29,-19.57,0,*40
1529197363.81,2457,16.06,74004.5,2.79,-20.53,-19.65,0,*4A
1529197365.05,2458,16.0,74000.3,2.75,-20.43,-19.57,0,*49
1529197366.28,2459,16.06,74002.0,2.79,-20.39,-19.57,0,*49
1529197367.51,2460,16.0,74002.8,2.79,-20.43,-19.65,0,*4F
1529197368.76,2461,16.06,74002.5,2.79,-20.53,-19.65,0,*4F
1529197369.98,2462,16.0,74000.5,2.79,-20.43,-19.65,0,*4D
1529197371.18,2463,16.0,74000.5,2.79,-20.39,-19.51,0,*46
1529197372.45,2464,16.0,74002.5,2.81,-20.43,-19.57,0,*4D
1529197373.65,2465,16.06,74002.8,2.79,-20.43,-19.71,0,*4F
1529197374.87,2466,16.06,74002.3,2.79,-20.39,-19.65,0,*44
1529197376.13,2467,16.06,74004.0,2.81,-20.43,-19.65,0,*4F
1529197377.39,2468,16.06,74002.0,2.81,-20.43,-19.65,0,*40
1529197378.61,2469,16.0,74000.3,2.83,-20.39,-19.65,0,*4E
1529197379.84,2470,16.0,74002.0,2.81,-20.43,-19.71,0,*4C
1529197381.03,2471,16.0,74000.3,2.79,-20.39,-19.51,0,*45
1529197382.24,2472,16.0,74002.5,2.79,-20.43,-19.71,0,*49
1529197383.47,2473,16.0,74002.3,2.81,-20.43,-19.71,0,*4F
1529197384.69,2474,16.06,74002.8,2.79,-20.43,-19.65,0,*4A
1529197385.94,2475,16.0,74000.5,2.75,-20.49,-19.85,0,*43
1529197387.14,2476,16.0,74000.3,2.83,-20.39,-19.75,0,*41
1529197388.39,2477,16.06,74000.0,2.81,-20.43,-19.81,0,*44
1529197389.62,2478,16.0,74002.5,2.81,-20.39,-19.71,0,*49
1529197390.84,2479,16.0,74000.5,2.81,-20.39,-19.71,0,*48
1529197392.07,2480,16.0,74002.0,2.81,-20.43,-19.71,0,*43
1529197393.35,2481,16.0,74000.5,2.81,-20.53,-19.81,0,*4C
1529197394.56,2482,16.0,74000.5,2.83,-20.49,-19.75,0,*4D
1529197395.82,2483,16.06,74000.8,2.81,-20.43,-19.81,0,*4F
1529197397.07,2484,16.0,74002.5,2.81,-20.43,-19.85,0,*4C
1529197398.33,2485,16.0,74002.3,2.81,-20.43,-19.85,0,*4D
1529197399.58,2486,16.0,74002.0,2.81,-20.53,-19.95,0,*4E
1529197400.85,2487,16.0,74000.8,2.81,-20.53,-19.81,0,*4A
1529197402.07,2488,16.0,74002.3,2.83,-20.35,-19.75,0,*4C
1529197403.27,2489,16.0,74002.0,2.79,-20.43,-19.95,0,*47
1529197404.48,2490,16.0,74000.0,2.79,-20.59,-20.09,0,*4B
1529197405.68,2491,16.0,74000.3,2.79,-20.59,-19.99,0,*49
1529197406.88,2492,16.0,74002.0,2.79,-20.59,-19.99,0,*4A
1529197408.12,2493,16.0,74004.3,2.81,-20.59,-20.09,0,*4F
1529197409.32,2494,16.0,74000.5,2.79,-20.59,-20.09,0,*4F
1529197410.54,2495,16.0,73998.8,2.79,-20.53,-19.99,0,*47
1529197411.77,2496,16.0,74002.3,2.79,-20.53,-19.99,0,*44
1529197412.99,2497,16.06,74004.0,2.79,-20.53,-19.99,0,*45
1529197414.21,2498,16.0,74000.0,2.79,-20.39,-19.81,0,*4F
1529197415.46,2499,16.0,73998.0,2.81,-20.39,-19.85,0,*4D
1529197416.68,2500,16.0,74000.0,2.83,-20.39,-19.81,0,*4A
1529197417.95,2501,16.0,74002.0,2.81,-20.53,-20.15,0,*42
1529197419.21,2502,16.06,74002.8,2.81,-20.53,-20.09,0,*4C
1529197420.44,2503,16.0,74002.8,2.81,-20.43,-19.99,0,*4F
1529197421.66,2504,16.06,74000.3,2.81,-20.39,-19.99,0,*45
1529197422.9,2505,16.0,74002.0,2.83,-20.35,-19.81,0,*43
1529197424.13,2506,16.06,74000.3,2.81,-20.39,-19.99,0,*47
1529197425.36,2507,16.0,74000.8,2.81,-20.39,-19.95,0,*4A
1529197426.59,2508,16.0,74000.3,2.81,-20.43,-19.99,0,*44
1529197427.82,2509,16.0,73998.8,2.81,-20.43,-20.09,0,*46
1529197429.07,2510,16.0,74000.3,2.81,-20.53,-20.29,0,*4D
1529197430.33,2511,16.0,74002.5,2.81,-20.53,-20.25,0,*40
1529197431.58,2512,16.06,74000.0,2.81,-20.43,-20.15,0,*41
1529197432.8,2513,16.0,73996.8,2.81,-20.39,-19.99,0,*43
1529197434.01,2514,16.0,74002.3,2.79,-20.39,-20.25,0,*4E
1529197435.24,2515,16.06,74000.8,2.81,-20.43,-20.29,0,*49
1529197436.47,2516,16.0,73998.0,2.81,-20.43,-20.09,0,*48
1529197437.7,2517,16.0,74002.0,2.81,-20.39,-19.99,0,*47
1529197438.91,2518,16.06,74000.0,2.83,-20.35,-20.05,0,*49
1529197440.15,2519,16.06,74004.3,2.81,-20.59,-20.25,0,*42
1529197441.38,2520,16.0,74000.5,2.81,-20.43,-20.29,0,*4F
1529197442.63,2521,16.06,74000.3,2.83,-20.49,-20.35,0,*4B
1529197443.88,2522,16.0,73996.3,2.81,-20.53,-20.29,0,*4C
1529197445.12,2523,16.06,74000.0,2.83,-20.49,-20.35,0,*49
1529197446.38,2524,16.06,74004.8,2.81,-20.53,-20.39,0,*4B
1529197447.64,2525,16.0,73996.8,2.81,-20.53,-20.25,0,*47
1529197448.86,2526,16.0,73996.8,2.83,-20.49,-20.39,0,*40
1529197450.12,2527,16.0,73998.3,2.81,-20.79,-20.59,0,*46
1529197451.35,2528,16.06,74004.5,2.83,-20.59,-20.49,0,*48
1529197452.58,2529,16.0,74000.3,2.83,-20.59,-20.49,0,*49
1529197453.84,2530,16.0,74002.3,2.83,-20.53,-20.49,0,*4B
1529197455.07,2531,16.06,74002.5,2.81,-20.43,-20.43,0,*43
1529197456.3,2532,16.0,74002.8,2.83,-20.59,-20.53,0,*48
1529197457.54,2533,16.0,74000.3,2.81,-20.63,-20.59,0,*48
1529197458.79,2534,16.0,74000.5,2.83,-20.49,-20.49,0,*44
1529197460.01,2535,16.0,74002.5,2.81,-20.73,-20.73,0,*47
1529197461.27,2536,16.06,74002.0,2.81,-20.53,-20.63,0,*47
1529197462.52,2537,16.06,74006.0,2.83,-20.49,-20.53,0,*4C
1529197463.78,2538,16.06,74002.8,2.85,-20.39,-20.49,0,*49
1529197465.01,2539,16.06,74002.8,2.81,-20.63,-20.59,0,*42
1529197466.24,2540,16.0,74000.5,2.79,-20.53,-20.63,0,*41
1529197467.49,2541,16.0,73998.8,2.81,-20.53,-20.59,0,*4E
1529197468.73,2542,16.0,74000.8,2.83,-20.35,-20.35,0,*45
1529197469.99,2543,16.0,74002.3,2.81,-20.39,-20.53,0,*4A
1529197471.24,2544,16.0,73998.5,2.81,-20.53,-20.73,0,*43
1529197472.5,2545,16.0,74002.0,2.81,-20.53,-20.59,0,*4A
1529197473.73,2546,16.06,74004.3,2.81,-20.39,-20.59,0,*45
1529197474.98,2547,16.06,74006.0,2.83,-20.49,-20.53,0,*4B
1529197476.22,2548,16.0,74002.0,2.81,-20.59,-20.73,0,*45
1529197477.45,2549,16.06,74002.0,2.81,-20.59,-20.73,0,*44
1529197478.67,2550,16.06,74000.8,2.83,-20.53,-20.69,0,*4F
1529197479.89,2551,16.0,74002.0,2.83,-20.49,-20.69,0,*45
1529197481.15,2552,16.06,74004.0,2.81,-20.53,-20.63,0,*45
1529197482.37,2553,16.0,74002.0,2.83,-20.49,-20.69,0,*47
1529197483.59,2554,16.0,74000.3,2.83,-20.53,-20.69,0,*4B
1529197484.82,2555,16.0,73996.8,2.81,-20.59,-20.73,0,*49
1529197486.08,2556,16.0,74000.5,2.81,-20.59,-20.79,0,*40
1529197487.33,2557,16.0,74002.8,2.81,-20.63,-20.79,0,*48
1529197488.58,2558,16.0,74002.5,2.81,-20.63,-20.79,0,*47
1529197489.82,2559,16.06,74000.8,2.81,-20.73,-20.79,0,*47
1529197491.03,2560,16.0,73998.5,2.83,-20.59,-20.73,0,*4D
1529197492.28,2561,16.06,74002.0,2.81,-20.59,-20.79,0,*44
1529197493.52,2562,16.0,74002.3,2.81,-20.63,-20.89,0,*41
1529197494.77,2563,16.06,74004.0,2.81,-20.63,-20.79,0,*4F
1529197496.0,2564,16.0,74000.8,2.81,-20.89,-20.93,0,*48
1529197497.25,2565,16.0,74000.5,2.81,-20.59,-20.79,0,*40
1529197498.5,2566,16.06,74002.3,2.81,-20.63,-21.03,0,*46
1529197499.74,2567,16.0,74000.0,2.81,-20.59,-20.93,0,*46
1529197500.96,2568,16.0,74002.8,2.83,-20.53,-20.73,0,*4F
1529197502.19,2569,16.0,74002.8,2.81,-20.63,-20.93,0,*41
1529197503.4,2570,16.0,74000.5,2.83,-20.59,-20.89,0,*49
1529197504.63,2571,16.0,73996.3,2.81,-20.73,-20.93,0,*49
1529197505.88,2572,16.0,74002.5,2.81,-20.73,-21.03,0,*42
1529197507.11,2573,16.0,74002.5,2.81,-20.63,-20.93,0,*4A
1529197508.38,2574,16.0,74002.0,2.81,-20.53,-20.79,0,*4A
1529197509.62,2575,16.0,74002.0,2.81,-20.59,-20.89,0,*4E
1529197510.88,2576,16.0,74004.3,2.81,-20.59,-20.79,0,*42
1529197512.12,2577,16.0,74000.5,2.81,-20.59,-20.89,0,*4C
1529197513.33,2578,16.0,74002.8,2.83,-20.59,-20.89,0,*41
1529197514.56,2579,16.0,74002.0,2.81,-20.59,-20.93,0,*49
1529197515.78,2580,16.0,74002.5,2.81,-20.63,-21.09,0,*44
1529197517.0,2581,16.0,74002.3,2.81,-20.73,-21.09,0,*44
1529197518.24,2582,16.0,74000.3,2.81,-20.59,-20.89,0,*46
1529197519.48,2583,16.0,74002.5,2.81,-20.59,-20.93,0,*4C
1529197520.73,2584,16.0,74000.8,2.81,-20.53,-20.93,0,*41
1529197521.99,2585,16.0,73998.3,2.81,-20.53,-20.89,0,*4B
1529197523.22,2586,16.0,74000.0,2.79,-20.59,-21.03,0,*46
1529197524.41,2587,16.0,74000.3,2.79,-20.73,-21.09,0,*45
1529197525.6,2588,16.06,74002.3,2.79,-20.73,-21.09,0,*4A
1529197526.82,2589,16.06,74002.0,2.79,-20.73,-21.03,0,*41
1529197528.04,2590,16.0,74000.3,2.81,-20.73,-21.09,0,*44
1529197529.26,2591,16.0,74000.3,2.79,-20.73,-21.03,0,*48
1529197530.46,2592,16.0,74000.0,2.79,-20.73,-21.17,0,*4E
1529197531.68,2593,16.0,74002.8,2.79,-20.89,-21.33,0,*4C
1529197532.93,2594,16.0,74002.5,2.81,-20.79,-21.17,0,*45
1529197534.21,2595,16.06,74002.8,2.81,-20.79,-21.33,0,*42
1529197535.46,2596,16.06,74006.0,2.81,-20.63,-21.03,0,*49
1529197536.66,2597,16.06,74004.5,2.79,-20.73,-21.17,0,*4B
1529197537.85,2598,16.06,74004.3,2.79,-20.73,-21.17,0,*44
1529197539.05,2599,16.06,74004.0,2.79,-20.63,-21.09,0,*4B
1529197540.28,2600,16.0,74002.3,2.79,-20.63,-21.03,0,*42
1529197541.48,2601,16.0,74000.3,2.79,-20.63,-21.17,0,*46
1529197542.7,2602,16.0,74002.3,2.75,-20.79,-21.13,0,*46
1529197543.95,2603,16.0,74002.5,2.75,-20.79,-21.27,0,*40
1529197545.15,2604,16.0,74002.5,2.79,-20.63,-21.17,0,*43
1529197546.35,2605,16.06,74006.0,2.79,-20.63,-21.09,0,*4D
1529197547.56,2606,16.0,74002.8,2.79,-20.59,-20.93,0,*45
1529197548.75,2607,16.06,74004.5,2.79,-20.59,-21.09,0,*46
1529197549.95,2608,16.0,74000.0,2.79,-20.59,-21.09,0,*49
1529197551.18,2609,16.0,74000.5,2.79,-20.53,-20.93,0,*40
1529197552.41,2610,16.0,74002.0,2.75,-20.63,-21.23,0,*4D
1529197553.62,2611,16.06,74000.3,2.79,-20.63,-21.17,0,*47
1529197554.87,2612,16.0,74002.5,2.75,-20.79,-21.27,0,*40
1529197556.06,2613,16.0,73996.8,2.79,-20.63,-21.09,0,*4A
1529197557.26,2614,16.0,74002.5,2.79,-20.63,-21.09,0,*4D
1529197558.45,2615,16.0,74000.3,2.79,-20.63,-21.09,0,*4C
1529197559.65,2616,16.06,74002.0,2.79,-20.59,-21.09,0,*46
1529197560.86,2617,16.06,74000.3,2.79,-20.63,-21.17,0,*41
1529197562.1,2618,16.06,74002.8,2.81,-20.53,-21.09,0,*45
1529197563.3,2619,16.0,73998.8,2.75,-20.59,-21.09,0,*45
1529197564.51,2620,16.0,73998.8,2.79,-20.59,-21.17,0,*4C
1529197565.71,2621,16.0,73998.5,2.79,-20.59,-21.17,0,*4D
1529197566.92,2622,16.0,74000.5,2.79,-20.59,-21.17,0,*4E
1529197568.12,2623,16.0,74002.5,2.79,-20.59,-21.17,0,*4F
1529197569.35,2624,16.0,74002.3,2.79,-20.53,-21.17,0,*42
1529197570.61,2625,16.06,74002.5,2.81,-20.73,-21.23,0,*41
1529197571.84,2626,16.0,74002.0,2.75,-20.69,-21.23,0,*42
1529197573.06,2627,16.06,74002.0,2.75,-20.69,-21.27,0,*47
1529197574.27,2628,16.06,74006.0,2.79,-20.59,-21.17,0,*44
1529197575.48,2629,16.0,74002.0,2.79,-20.59,-21.17,0,*45
1529197576.71,2630,16.0,74002.5,2.79,-20.59,-21.23,0,*4A
1529197577.94,2631,16.06,74006.0,2.75,-20.63,-21.23,0,*4E
1529197579.15,2632,16.0,74002.5,2.79,-20.59,-21.17,0,*4F
1529197580.35,2633,16.0,74004.5,2.75,-20.63,-21.17,0,*4B
1529197581.58,2634,16.06,74006.5,2.75,-20.79,-21.39,0,*4B
1529197582.8,2635,16.0,74002.8,2.75,-20.83,-21.43,0,*42
1529197584.02,2636,16.0,74002.8,2.75,-20.93,-21.53,0,*41
1529197585.24,2637,16.0,74000.3,2.75,-20.83,-21.43,0,*40
1529197586.47,2638,16.0,74000.8,2.75,-20.79,-21.39,0,*47
1529197587.73,2639,16.0,74000.3,2.81,-20.63,-21.23,0,*4D
1529197588.93,2640,16.06,74006.5,2.75,-20.69,-21.39,0,*49
1529197590.14,2641,16.06,74004.0,2.75,-20.73,-21.33,0,*49
1529197591.4,2642,16.0,74002.5,2.79,-20.53,-21.23,0,*45
1529197592.64,2643,16.06,74006.5,2.79,-20.59,-21.23,0,*4E
1529197593.86,2644,16.0,74002.0,2.75,-20.63,-21.33,0,*4D
1529197595.06,2645,16.0,74002.3,2.75,-20.69,-21.39,0,*4C
1529197596.29,2646,16.0,74000.3,2.75,-20.69,-21.27,0,*40
1529197597.52,2647,16.0,74000.8,2.79,-20.63,-21.23,0,*43
1529197598.75,2648,16.06,74006.5,2.75,-20.63,-21.27,0,*44
1529197599.98,2649,16.0,74000.8,2.79,-20.63,-21.23,0,*4D
1529197601.18,2650,16.0,74000.0,2.75,-20.69,-21.39,0,*48
1529197602.4,2651,16.06,74004.8,2.79,-20.63,-21.33,0,*45
1529197603.62,2652,16.0,74000.5,2.79,-20.73,-21.33,0,*47
1529197604.85,2653,16.0,74002.3,2.79,-20.59,-21.27,0,*4B
1529197606.06,2654,16.0,74002.3,2.75,-20.63,-21.39,0,*46
1529197607.25,2655,16.06,74002.8,2.79,-20.73,-21.39,0,*4A
1529197608.48,2656,16.06,74004.5,2.75,-20.69,-21.27,0,*41
1529197609.7,2657,16.0,74000.5,2.75,-20.69,-21.53,0,*43
1529197610.93,2658,16.0,74002.3,2.79,-20.59,-21.27,0,*40
1529197612.13,2659,16.0,74002.5,2.75,-20.69,-21.39,0,*41
1529197613.33,2660,16.06,74004.8,2.75,-20.69,-21.43,0,*46
1529197614.56,2661,16.0,74002.5,2.75,-20.63,-21.27,0,*4F
1529197615.76,2662,16.0,74002.5,2.75,-20.69,-21.39,0,*49
1529197616.98,2663,16.06,74004.8,2.75,-20.79,-21.43,0,*44
1529197618.21,2664,16.06,74002.8,2.75,-20.63,-21.27,0,*4A
1529197619.43,2665,16.0,74000.0,2.75,-20.79,-21.39,0,*4F
1529197620.63,2666,16.06,74006.0,2.75,-20.59,-21.39,0,*4E
1529197621.83,2667,16.0,74002.5,2.75,-20.69,-21.39,0,*4C
1529197623.03,2668,16.0,74000.8,2.75,-20.63,-21.39,0,*49
1529197624.23,2669,16.0,74000.8,2.75,-20.69,-21.39,0,*42
1529197625.46,2670,16.0,74000.0,2.75,-20.69,-21.23,0,*41
1529197626.67,2671,16.06,74002.3,2.75,-20.63,-21.39,0,*41
1529197627.89,2672,16.0,74002.0,2.75,-20.69,-21.27,0,*47
1529197629.12,2673,16.0,74002.0,2.75,-20.63,-21.27,0,*4C
1529197630.34,2674,16.06,74006.0,2.79,-20.73,-21.33,0,*43
1529197631.54,2675,16.06,74004.0,2.75,-20.69,-21.43,0,*42
1529197632.73,2676,16.0,74002.0,2.75,-20.69,-21.43,0,*41
1529197633.98,2677,16.0,74006.3,2.75,-20.79,-21.53,0,*40
1529197635.2,2678,16.0,74002.3,2.73,-20.73,-21.47,0,*46
1529197636.43,2679,16.06,74006.0,2.73,-20.69,-21.47,0,*4C
1529197637.63,2680,16.0,74002.3,2.75,-20.63,-21.39,0,*4F
1529197638.87,2681,16.06,74004.8,2.75,-20.79,-21.57,0,*4D
1529197640.12,2682,16.0,74004.3,2.75,-20.83,-21.53,0,*4F
1529197641.32,2683,16.0,74002.5,2.75,-20.63,-21.39,0,*4C
1529197642.58,2684,16.0,74000.5,2.75,-20.49,-21.23,0,*48
1529197643.81,2685,16.0,74002.5,2.75,-20.63,-21.27,0,*45
1529197645.0,2686,16.0,74004.5,2.75,-20.69,-21.43,0,*4E
1529197646.2,2687,16.0,74002.0,2.75,-20.69,-21.43,0,*4F
1529197647.4,2688,16.0,74002.0,2.75,-20.69,-21.39,0,*4D
1529197648.59,2689,16.06,74006.3,2.75,-20.69,-21.43,0,*41
1529197649.81,2690,16.0,74002.5,2.75,-20.79,-21.43,0,*48
1529197651.05,2691,16.0,74000.3,2.75,-20.79,-21.57,0,*4C
1529197652.25,2692,16.0,74002.8,2.79,-20.63,-21.39,0,*40
1529197653.46,2693,16.0,73998.5,2.75,-20.59,-21.39,0,*44
1529197654.66,2694,16.0,73998.8,2.75,-20.59,-21.39,0,*43
1529197655.86,2695,16.06,74006.3,2.75,-20.63,-21.43,0,*46
1529197657.06,2696,16.06,74006.0,2.75,-20.69,-21.43,0,*4F
1529197658.3,2697,16.0,73998.0,2.75,-20.79,-21.53,0,*4E
1529197659.55,2698,16.06,74006.3,2.75,-20.79,-21.53,0,*41
1529197660.78,2699,16.06,74006.8,2.73,-20.69,-21.47,0,*42
1529197662.01,2700,16.0,74002.5,2.75,-20.59,-21.27,0,*40
1529197663.21,2701,16.0,74000.5,2.75,-20.63,-21.39,0,*47
1529197664.43,2702,16.0,74002.8,2.75,-20.79,-21.43,0,*42
1529197665.68,2703,16.0,74000.0,2.75,-20.83,-21.53,0,*47
1529197666.87,2704,16.0,74000.0,2.75,-20.69,-21.43,0,*45
1529197668.1,2705,16.0,74002.3,2.75,-20.69,-21.53,0,*45
1529197669.34,2706,16.0,74000.0,2.75,-20.83,-21.57,0,*46
1529197670.57,2707,16.0,74000.3,2.73,-20.89,-21.47,0,*4A
1529197671.82,2708,16.0,74000.0,2.75,-20.79,-21.53,0,*49
1529197673.06,2709,16.0,74004.0,2.75,-20.79,-21.53,0,*48
1529197674.31,2710,16.0,74000.0,2.75,-20.83,-21.57,0,*41
1529197675.56,2711,16.06,74004.3,2.73,-20.89,-21.57,0,*4C
1529197676.78,2712,16.0,74002.5,2.73,-20.73,-21.47,0,*4B
1529197678.0,2713,16.0,74002.5,2.73,-20.73,-21.47,0,*4A
1529197679.25,2714,16.06,74006.0,2.73,-20.63,-21.33,0,*4F
1529197680.5,2715,16.0,74002.8,2.73,-20.69,-21.57,0,*46
1529197681.75,2716,16.0,74002.3,2.73,-20.89,-21.57,0,*4B
1529197682.98,2717,16.0,74002.8,2.73,-20.89,-21.63,0,*4D
1529197684.2,2718,16.0,74004.3,2.75,-20.79,-21.43,0,*49
1529197685.45,2719,16.0,74004.8,2.73,-20.83,-21.63,0,*49
1529197686.66,2720,16.0,74002.3,2.75,-20.79,-21.73,0,*41
1529197687.92,2721,16.06,74006.0,2.73,-20.99,-21.77,0,*4C
1529197689.19,2722,16.0,74002.0,2.73,-20.83,-21.57,0,*46
1529197690.44,2723,16.0,74004.3,2.73,-20.99,-21.77,0,*4E
1529197691.68,2724,16.06,74004.0,2.73,-20.73,-21.57,0,*4F
1529197692.94,2725,16.06,74004.3,2.73,-20.99,-21.77,0,*48
1529197694.16,2726,16.06,74004.5,2.71,-20.99,-21.77,0,*49
1529197695.39,2727,16.0,74002.0,2.73,-20.89,-21.63,0,*4E
1529197696.6,2728,16.0,74000.5,2.71,-20.73,-21.57,0,*41
1529197697.82,2729,16.06,74004.0,2.71,-20.83,-21.47,0,*4E
1529197699.01,2730,16.06,74006.0,2.71,-20.73,-21.63,0,*4F
1529197700.24,2731,16.0,74004.3,2.73,-20.73,-21.47,0,*4A
1529197701.51,2732,16.06,74006.3,2.73,-20.83,-21.57,0,*47
1529197702.76,2733,16.0,74004.0,2.73,-20.99,-21.77,0,*4F
1529197704.01,2734,16.0,74000.5,2.73,-20.83,-21.77,0,*43
1529197705.23,2735,16.06,74004.0,2.71,-20.83,-21.63,0,*45
1529197706.49,2736,16.0,74000.5,2.73,-20.83,-21.77,0,*41
1529197707.68,2737,16.06,74002.8,2.71,-20.73,-21.77,0,*4D
1529197708.93,2738,16.06,74002.8,2.73,-20.69,-21.57,0,*49
1529197710.12,2739,16.0,74004.0,2.71,-20.89,-21.77,0,*46
1529197711.35,2740,16.0,74002.3,2.71,-20.83,-21.63,0,*47
1529197712.55,2741,16.0,74002.5,2.71,-20.89,-21.77,0,*49
1529197713.74,2742,16.0,74000.3,2.71,-20.89,-21.77,0,*4A